Location: Drocourt
(49.0571°N, 1.7669°E)
Time: 14:50:12
(UTC+00:00)

ATLAS 5 CENTAUR R/B - Pass Details

Date: 09 February 2023
Orbit: 460 x 1178 km, 63.3° (Epoch: 24 March)

Event Time Altitude Azimuth Distance (km) Brightness Sun altitude
Rises 19:50:20 0° 319° (NW) 2,959 5.8 -27.8°
Reaches altitude 10° 19:52:34 10° 328° (NNW) 2,149 4.8 -28.1°
Enters shadow 19:55:39 32° 359° (N) 1,286 3.2 -28.6°
